Regional Weather Roundup
Issued by NWS

Home | Current Version | Previous Version | Graphics & Text | Print | Product List | Glossary On
Versions: 1 2 3 4 5 6 7 8 9 10 11 12 13 14 15 16 17 18 19 20 21 22 23 24 25 26 27 28 29 30 31 32 33 34 35 36 37 38 39 40 41 42 43 44 45 46 47 48 49 50
000
ASUS45 KABQ 010801
RWRNM
NEW MEXICO REGIONAL WEATHER ROUNDUP
NATIONAL WEATHER SERVICE ALBUQUERQUE NM
200 AM MDT SUN MAY 01 2016

NOTE: "FAIR" MEANS FEW OR NO CLOUDS BELOW 12,000 FEET AGL WITH NO
       SIGNIFICANT WEATHER OR OBSTRUCTIONS TO VISION.

      THIS PRODUCT IS RELEASED AS TWO VERSIONS.  ONE VERSION NEAR
      THE TOP OF THE HOUR CONTAINING PRELIMINARY DATA FROM ALBUQUERQUE
      AND OTHER STATIONS.  A FINAL VERSION WITH ADDITIONAL DATA IS
      ISSUED ABOUT 10 MINUTES AFTER THE HOUR.

NMZ501-503-504-510>518-010900-
NORTHWEST PLATEAU/NORTHCENTRAL MOUNTAINS

CITY           SKY/WX    TMP DP  RH WIND       PRES   REMARKS
FARMINGTON     MOCLDY    45  33  63 NE5       29.90S
SANTA FE       CLOUDY    42  38  85 CALM      29.98R
TAOS           CLOUDY    32  27  80 N5        30.05R VSB 1/2 WCI  27

$$
NMZ402-403-502-505>509-010900-
WESTCENTRAL MOUNTAINS/SOUTHWEST MOUNTAINS

CITY           SKY/WX    TMP DP  RH WIND       PRES   REMARKS
GALLUP         RAIN      35  34  96 E6        29.92R WCI  30
GRANTS         RAIN      40  38  93 CALM      29.94S
SILVER CITY      N/A     45  25  45 W7        29.86R

$$
NMZ407-409-411-412-010900-
SOUTHERN DESERTS

CITY           SKY/WX    TMP DP  RH WIND       PRES   REMARKS
LORDSBURG      FAIR      54  34  47 W6        29.82R
DEMING         FAIR      58  22  24 SW6       29.81R
HOLLOMAN AFB   FAIR      60  17  18 SW7       29.76S
ALAMOGORDO     FAIR      63  18  17 E8        29.77F
T OR C         FAIR      57  33  40 NE6       29.80R

$$
NMZ519>523-010900-
CENTRAL VALLEYS/CENTRAL HIGHLANDS

CITY           SKY/WX    TMP DP  RH WIND       PRES   REMARKS
ALBUQUERQUE    CLOUDY    44  33  65 E36G43    29.92F
DOUBLE EAGLE   MOCLDY    42  35  76 SE14G22   29.96S
CLINES CORNERS CLOUDY    31  29  92 E21G29    30.01S WCI  18
BELEN          CLOUDY    47  42  81 CALM      29.93S
SOCORRO        NOT AVBL

$$
NMZ524>526-539-540-010900-
SOUTHCENTRAL MOUNTAINS

CITY           SKY/WX    TMP DP  RH WIND       PRES   REMARKS
RUIDOSO        NOT AVBL

$$
NMZ527>531-010900-
NORTHEAST HIGHLANDS/NORTHEAST PLAINS

CITY           SKY/WX    TMP DP  RH WIND       PRES   REMARKS
LAS VEGAS      FLURRIES  30  29  96 NE13      30.09S WCI  20
RATON          CLOUDY    34  23  64 N18G25    30.11R WCI  23
CLAYTON        CLOUDY    38  28  67 NW10G23   30.12R WCI  31

$$
NMZ532>537-010900-
EASTCENTRAL PLAINS

CITY           SKY/WX    TMP DP  RH WIND       PRES   REMARKS
TUCUMCARI      CLOUDY    40  35  83 NE18G24   30.12R WCI  31
CANNON AFB     NOT AVBL
CLOVIS AIRPORT CLOUDY    41  34  75 N24G32    30.10R

$$
NMZ028-029-538-010900-
SOUTHEAST PLAINS

CITY           SKY/WX    TMP DP  RH WIND       PRES   REMARKS
ROSWELL        CLOUDY    51  33  50 NE21G26   30.00R
ARTESIA        FAIR      59  39  47 NE22G29   29.95R
CARLSBAD       FAIR      64  39  39 NE16      29.87R
HOBBS          FAIR      55  37  50 NE26G33   29.97R


$$




USA.gov is the U.S. government's official web portal to all federal, state and local government web resources and services.